Weather History for Marion, IN

Change the Weather History Date:

Tuesday, February 4, 2014

  Actual Average (KMIE) Record (KMIE)
Temperature  
Mean Temperature 19 °F 27 °F  
Max Temperature 20 °F 35 °F 59 °F (2008)
Min Temperature 18 °F 19 °F -9 °F (1985)
Degree Days  
Heating Degree Days 46 38  
Month to date heating degree days 152  
Since 1 July heating degree days 3545  
Cooling Degree Days 0 0  
Month to date cooling degree days 0  
Year to date cooling degree days 0  
Moisture  
Dew Point 14 °F    
Average Humidity 80    
Maximum Humidity 89    
Minimum Humidity 66    
Precipitation  
Precipitation 0.02 in 0.08 in 0.97 in (1971)
Month to date precipitation 0.31  
Year to date precipitation 2.54  
Sea Level Pressure  
Sea Level Pressure 30.26 in    
Wind  
Wind Speed 5 mph (ENE)    
Max Wind Speed 22 mph    
Max Gust Speed 26 mph    
Visibility 2 miles    
Events Snow    
T = Trace of Precipitation, MM = Missing Value Source: NWS Daily Summary

Daily Weather History Graph

Daily Weather History Graph

Search for Another Location

Airport:

Trip Planner

Search our weather history database for the weather conditions in past years. The results will help you decide how hot, cold, wet, or windy it might be!

Date:

Astronomy

Feb. 04, 2014 Rise Set
Actual Time 7:49 AM EST 6:04 PM EST
Civil Twilight 7:20 AM EST 6:33 PM EST
Nautical Twilight 6:48 AM EST 7:05 PM EST
Astronomical Twilight 6:16 AM EST 7:37 PM EST
Moon 10:25 AM EST (2/4) 11:59 PM EST (2/4)
Length of Visible Light 11h 12m
Length of Day
10h 15m
Waxing Crescent, 29% of the Moon is Illuminated
Feb 4
Waxing Crescent
Feb 6
First Quarter
Feb 14
Full
Feb 22
Last Quarter
Mar 1
New

Hourly Weather History & Observations

Time (EST) Temp. Windchill Dew Point Humidity Pressure Visibility Wind Dir Wind Speed Gust Speed Precip Events Conditions
12:15 AM - - - N/A% 30.35 in - Calm Calm - N/A   Unknown
12:35 AM - - - N/A% 30.35 in - Calm Calm - N/A   Unknown
12:55 AM - - - N/A% 30.35 in - Calm Calm - N/A   Unknown
1:15 AM - - - N/A% 30.35 in - Calm Calm - N/A   Unknown
1:35 AM - - - N/A% 30.34 in - Calm Calm - N/A   Unknown
1:55 AM - - - N/A% 30.34 in - Calm Calm - N/A   Unknown
2:15 AM - - - N/A% 30.35 in - Calm Calm - N/A   Unknown
2:35 AM - - - N/A% 30.35 in - Calm Calm - N/A   Unknown
2:55 AM - - - N/A% 30.35 in - Calm Calm - N/A   Unknown
3:15 AM - - - N/A% 30.35 in - Calm Calm - N/A   Unknown
3:35 AM - - - N/A% 30.36 in - Calm Calm - N/A   Unknown
3:55 AM - - - N/A% 30.36 in - Calm Calm - N/A   Unknown
4:15 AM - - - N/A% 30.37 in - Calm Calm - N/A   Unknown
4:35 AM - - - N/A% 30.37 in - Calm Calm - N/A   Unknown
4:55 AM - - - N/A% 30.37 in - Calm Calm - N/A   Unknown
5:15 AM - - - N/A% 30.37 in - Calm Calm - N/A   Unknown
5:35 AM - - - N/A% 30.37 in - North 3.5 mph - N/A   Unknown
5:55 AM - - - N/A% 30.36 in - NE 4.6 mph - N/A   Unknown
6:15 AM - - - N/A% 30.35 in - NE 4.6 mph - N/A   Unknown
6:35 AM - - - N/A% 30.36 in - NNE 3.5 mph - N/A   Unknown
6:55 AM - - - N/A% 30.36 in - ENE 3.5 mph - N/A   Unknown
7:15 AM - - - N/A% 30.36 in - ENE 4.6 mph - N/A   Unknown
7:35 AM - - - N/A% 30.39 in - NE 3.5 mph - N/A   Unknown
7:55 AM - - - N/A% 30.39 in - ENE 3.5 mph - N/A   Unknown
8:15 AM - - - N/A% 30.40 in - East 3.5 mph - N/A   Unknown
8:35 AM - - - N/A% 30.38 in - East 9.2 mph - N/A   Mostly Cloudy
8:55 AM - - - N/A% 30.35 in - East 10.4 mph - N/A   Mostly Cloudy
9:15 AM - - - N/A% 30.35 in - East 9.2 mph - N/A   Unknown
9:35 AM - - - N/A% 30.36 in - East 6.9 mph - N/A   Mostly Cloudy
9:55 AM - - - N/A% 30.36 in - East 8.1 mph - N/A   Mostly Cloudy
10:15 AM - - - N/A% 30.37 in - East 8.1 mph - N/A   Unknown
10:35 AM - - - N/A% 30.36 in - East 9.2 mph - N/A   Unknown
10:55 AM - - - N/A% 30.35 in - ENE 10.4 mph - N/A   Unknown
11:15 AM - - - N/A% 30.33 in - ENE 11.5 mph - N/A   Scattered Clouds
11:35 AM 18.7 °F 5.7 °F 11.5 °F 74% 30.31 in - ENE 12.7 mph - N/A   Mostly Cloudy
11:55 AM 19.2 °F 5.3 °F 11.1 °F 71% 30.28 in - East 15.0 mph - N/A   Scattered Clouds
12:15 PM 19.6 °F 8.9 °F 11.1 °F 70% 30.28 in - East 9.2 mph - N/A   Scattered Clouds
12:35 PM 20.3 °F 10.6 °F 10.8 °F 67% 30.30 in - ENE 8.1 mph - N/A   Mostly Cloudy
12:55 PM 20.5 °F 10.8 °F 10.8 °F 66% 30.29 in - East 8.1 mph - N/A   Mostly Cloudy
1:15 PM 20.7 °F 11.9 °F 11.3 °F 67% 30.29 in - ENE 6.9 mph - N/A   Overcast
1:35 PM 20.5 °F 11.7 °F 11.5 °F 68% 30.29 in - ENE 6.9 mph - N/A   Overcast
1:55 PM 20.3 °F 9.8 °F 11.3 °F 68% 30.29 in - ENE 9.2 mph - N/A   Overcast
2:15 PM 20.3 °F 9.0 °F 11.7 °F 69% 30.26 in - ENE 10.4 mph - N/A   Overcast
2:35 PM 20.3 °F 8.3 °F 11.8 °F 70% 30.25 in - ENE 11.5 mph - N/A   Overcast
2:55 PM 20.3 °F 7.7 °F 11.7 °F 69% 30.23 in - NE 12.7 mph - N/A   Overcast
3:15 PM 20.3 °F 7.2 °F 11.5 °F 69% 30.22 in - NE 13.8 mph - N/A   Overcast
3:35 PM 20.3 °F 9.8 °F 11.8 °F 70% 30.25 in - NE 9.2 mph - N/A   Overcast
3:55 PM 19.8 °F 9.1 °F 13.3 °F 76% 30.24 in - ENE 9.2 mph - N/A   Overcast
4:15 PM 19.0 °F 7.5 °F 14.2 °F 81% 30.21 in - NE 10.4 mph - N/A   Overcast
4:35 PM 18.7 °F 5.7 °F 14.7 °F 85% 30.20 in - NE 12.7 mph - N/A   Overcast
4:55 PM 18.5 °F 5.5 °F 14.9 °F 86% 30.21 in - ENE 12.7 mph - N/A   Overcast
5:15 PM 18.5 °F 6.1 °F 15.3 °F 87% 30.21 in - ENE 11.5 mph - N/A   Overcast
5:35 PM 18.5 °F 4.9 °F 15.4 °F 88% 30.19 in - ENE 13.8 mph - 0.01 in   Overcast
5:55 PM 18.5 °F 5.5 °F 15.4 °F 88% 30.20 in - ENE 12.7 mph - 0.01 in   Overcast
6:15 PM 18.9 °F 5.9 °F 15.6 °F 87% 30.20 in - ENE 12.7 mph - N/A   Overcast
6:35 PM 18.5 °F 3.8 °F 15.6 °F 89% 30.16 in - ENE 16.1 mph 21.9 mph 0.01 in   Overcast
7:15 PM 18.7 °F 3.6 °F 15.6 °F 88% 30.13 in - ENE 17.3 mph - N/A   Unknown
7:35 PM 19.0 °F 4.0 °F 15.6 °F 87% 30.12 in - ENE 17.3 mph 24.2 mph N/A   Overcast
7:55 PM 19.0 °F 2.4 °F 15.6 °F 87% 30.09 in - ENE 21.9 mph 26.5 mph N/A   Unknown
8:15 PM 19.0 °F 4.0 °F 15.6 °F 87% 30.10 in - ENE 17.3 mph 24.2 mph N/A   Overcast
8:35 PM 19.0 °F 4.0 °F 15.6 °F 87% 30.07 in - ENE 17.3 mph - N/A   Overcast
8:55 PM 19.0 °F 4.0 °F 15.6 °F 87% 30.06 in - ENE 17.3 mph 24.2 mph N/A   Overcast
9:15 PM 19.2 °F 5.3 °F 15.8 °F 87% 30.06 in - ENE 15.0 mph 25.3 mph N/A   Unknown
9:35 PM 19.4 °F 4.5 °F 15.8 °F 86% 30.06 in 5.0 mi ENE 17.3 mph 23.0 mph N/A Snow Light Snow
9:55 PM 19.4 °F 5.0 °F 16.0 °F 87% 30.04 in 1.2 mi ENE 16.1 mph 23.0 mph N/A Snow Light Snow
10:15 PM 19.4 °F 5.0 °F 16.2 °F 87% 30.02 in 1.8 mi ENE 16.1 mph 20.7 mph N/A Snow Light Snow
10:35 PM 19.4 °F 5.5 °F 16.3 °F 88% 30.01 in 1.8 mi ENE 15.0 mph 20.7 mph N/A Snow Light Snow
10:55 PM 19.6 °F 5.7 °F 16.7 °F 89% 30.00 in 1.2 mi ENE 15.0 mph 23.0 mph N/A Snow Light Snow
11:15 PM 19.9 °F 6.2 °F 16.9 °F 88% 29.99 in 1.0 mi ENE 15.0 mph 23.0 mph N/A Snow Light Snow
11:35 PM 20.1 °F 5.9 °F 17.1 °F 88% 29.96 in 1.5 mi ENE 16.1 mph 24.2 mph N/A Snow Light Snow
11:55 PM 20.1 °F 5.4 °F 17.1 °F 88% 29.95 in 1.8 mi ENE 17.3 mph 24.2 mph N/A Snow Light Snow